Location: DARK SKY Beskydy - Park tmavé oblohy, www.darkskybeskydy.cz
(49.4926°N, 18.5016°E)
Time: 10:47:07
(UTC+02:00)

Vanguard 1 - Pass Details

Date: 02 March 2024
Orbit: 653 x 3825 km, 34.2° (Epoch: 12 April)

Event Time Altitude Azimuth Distance (km) Brightness Sun altitude
Rises 00:30:19 0° 276° (W) 6,851 14.3 -47.1°
Reaches altitude 10° 00:35:41 10° 265° (W) 6,226 14.0 -46.9°
Enters shadow 00:37:48 14° 260° (W) 6,032 13.8 -46.8°
Maximum altitude 00:50:47 26° 219° (SW) 5,592 - -46.2°
Drops below altitude 10° 01:07:18 10° 173° (S) 6,739 - -45.2°
Sets 01:13:39 0° 162° (SSE) 7,488 - -44.7°
